sat.trackr.live / text

‹ back to catalog

GEESAT-1 01

NORAD 52785 · 2022-058A

PAYLOAD ACTIVE UNKNOWN

§ Identity

Operator
Country
PRC
Launch date
2022-06-02
Launch site
XICLF
Launch vehicle
Mass (kg)
RCS (m²)

External: N2YO · Heavens-Above · Gunter

§ Orbital elements

Epoch: 2026-09-20T21:36:00.864000Z

Period
97.19 min
Inclination
49.9929°
Eccentricity
0.0021802
Mean motion
14.81601991 rev/d
Perigee alt
609.0 km
Apogee alt
639.5 km
Semi-major
7,002.4 km
B*
1.2014e-4
RAAN
120.3653°
Arg perigee
268.2856°
Mean anomaly
91.5584°
Rev number
23,412

§ Raw data

GEESAT-1 011 52785U 22058A   26263.90001000  .00000731  00000+0  12014-3 0  99942 52785  49.9929 120.3653 0021802 268.2856  91.5584 14.81601991234125

JSON: /api/v1/satellites/52785 · /tle

For live sub-satellite position, see the globe view (requires WebGL).

§ Visibility from observer

Set your observer location to see the next 7 days of passes ≥ 10°. The values pass through the URL so the page stays shareable.

No JS? Fill the form by hand. The geolocation button needs JavaScript.